Location: Huisseau
(47.5933°N, 1.4533°E)
Time: 18:11:43
(UTC+00:00)

CENTAUR R/B - Pass Details

Date: 25 November 2025
Orbit: 633 x 1547 km, 63.4° (Epoch: 06 December)

Event Time Altitude Azimuth Distance (km) Brightness Sun altitude
Exits shadow 02:57:08 39° 133° (SE) 2,096 4.2 -42.5°
Drops below altitude 10° 03:02:33 10° 138° (SE) 3,712 5.7 -41.6°
Sets 03:05:40 0° 139° (SE) 4,703 6.3 -41.1°
